This demonstration page uses our WeatherBlox Daily Observations layout. Learn more.

Left ArrowRight Arrow

Hourly Observations for March 15, 2020

Temp ( °F °C ) Dew Point ( °F °C ) Humidity (%) Winds ( mph kmh ) Pressure ( in mb ) Visibility ( mi km ) Precip ( " mm )
12:54 am 00:54 Cloudy 33 0.6 28 -2.2 82 82 NE 9 15 30.6 1036 10 16.0934 0 0
1:54 am 01:54 Cloudy 33 0.6 28 -2.2 82 82 ENE 7 11 30.6 1036 10 16.0934 0 0
2:54 am 02:54 Cloudy 33 0.6 28 -2.2 82 82 NE 9 15 30.6 1036 10 16.0934 0 0
3:21 am 03:21 Cloudy 33 0.6 28 -2.2 82 82 ENE 9 15 30.63 1037 10 16.0934 0 0
3:54 am 03:54 Cloudy 33 0.6 28 -2.2 82 82 ENE 8 13 30.6 1036 10 16.0934 0 0
4:54 am 04:54 Cloudy 32 0 28 -2.2 85 85 ENE 8 13 30.6 1036 10 16.0934 0 0
5:42 am 05:42 Cloudy 32 0 28 -2.2 85 85 ENE 9 15 30.64 1038 8 12.87472 0 0
5:54 am 05:54 Cloudy with Mist and Fog 32 0 28 -2.2 85 85 E 8 13 30.62 1037 6 9.65604 0 0
6:07 am 06:07 Cloudy with Mist and Fog 32 0 28 -2.2 85 85 ENE 10 17 30.64 1038 6 9.65604 0 0
6:22 am 06:22 Cloudy 32 0 28 -2.2 85 85 ENE 8 13 30.64 1038 8 12.87472 0 0
6:54 am 06:54 Cloudy 32 0 28 -2.2 85 85 ENE 12 19 30.62 1037 10 16.0934 0 0
7:05 am 07:05 Cloudy 32 0 27 -2.8 82 82 ENE 12 19 30.65 1038 10 16.0934 0 0
7:54 am 07:54 Cloudy 32 0 26 -3.3 79 79 E 10 17 30.62 1037 10 16.0934 0 0
8:10 am 08:10 Cloudy 31 -0.6 26 -3.3 82 82 E 10 17 30.65 1038 10 16.0934 0 0
8:54 am 08:54 Cloudy 31 -0.6 26 -3.3 82 82 ENE 9 15 30.63 1037 10 16.0934 0 0
9:25 am 09:25 Cloudy 32 0 26 -3.3 79 79 E 8 13 30.66 1038 10 16.0934 0 0
9:54 am 09:54 Cloudy 32 0 26 -3.3 79 79 E 8 13 30.64 1038 10 16.0934 0 0
10:13 am 10:13 Cloudy 32 0 26 -3.3 79 79 E 7 11 30.67 1039 10 16.0934 0 0
10:54 am 10:54 Cloudy 32 0 26 -3.3 79 79 ESE 10 17 30.64 1038 10 16.0934 0 0
11:54 am 11:54 Cloudy 32 0 26 -3.3 79 79 E 8 13 30.63 1037 10 16.0934 0 0
12:03 pm 12:03 Cloudy 32 0 26 -3.3 79 79 ESE 8 13 30.66 1038 10 16.0934 0 0
12:54 pm 12:54 Cloudy 33 0.6 27 -2.8 78 78 SE 8 13 30.62 1037 9 14.48406 0 0
1:54 pm 13:54 Cloudy 34 1.1 27 -2.8 76 76 SE 8 13 30.58 1036 10 16.0934 0 0
2:18 pm 14:18 Cloudy 33 0.6 27 -2.8 78 78 SE 10 17 30.59 1036 10 16.0934 0 0
2:32 pm 14:32 Cloudy 33 0.6 27 -2.8 78 78 S 10 17 30.58 1035 10 16.0934 0 0
2:54 pm 14:54 Cloudy 33 0.6 28 -2.2 82 82 SE 6 9 30.54 1034 10 16.0934 0 0
3:54 pm 15:54 Cloudy 33 0.6 28 -2.2 82 82 SE 6 9 30.5 1033 9 14.48406 0 0
4:33 pm 16:33 Cloudy 34 1.1 28 -2.2 79 79 SE 9 15 30.5 1033 10 16.0934 0 0
4:54 pm 16:54 Cloudy 34 1.1 27 -2.8 76 76 SSE 10 17 30.48 1032 10 16.0934 0 0
5:54 pm 17:54 Cloudy 34 1.1 27 -2.8 76 76 SSE 9 15 30.47 1032 10 16.0934 0 0
6:38 pm 18:38 Cloudy 34 1.1 28 -2.2 79 79 S 9 15 30.47 1032 10 16.0934 0 0
6:54 pm 18:54 Cloudy 34 1.1 28 -2.2 79 79 SSE 9 15 30.45 1031 10 16.0934 0 0
7:23 pm 19:23 Cloudy 34 1.1 28 -2.2 79 79 S 8 13 30.46 1032 10 16.0934 0 0
7:54 pm 19:54 Cloudy 34 1.1 28 -2.2 79 79 S 6 9 30.44 1031 10 16.0934 0 0
8:03 pm 20:03 Cloudy 34 1.1 28 -2.2 79 79 S 5 7 30.45 1031 10 16.0934 0 0
8:54 pm 20:54 Cloudy 34 1.1 29 -1.7 82 82 SSE 5 7 30.44 1031 10 16.0934 0 0
9:54 pm 21:54 Cloudy 34 1.1 29 -1.7 82 82 SE 9 15 30.42 1030 9 14.48406 0 0
10:54 pm 22:54 Cloudy 34 1.1 29 -1.7 82 82 SSE 9 15 30.41 1030 9 14.48406 0 0
11:49 pm 23:49 Cloudy 34 1 30 -1 87 87 SE 7 11 30.42 1030 8 12.87472 0 0
11:54 pm 23:54 Cloudy 34 1.1 30 -1.1 85 85 SE 8 13 30.4 1029 8 12.87472 0 0

Powered by AerisWeather